Mammoth, CA

8:51 AM PST on December 11, 2019 (GMT -0800)
Mammoth Yosemite

Weather History for KMMH - July, 2019

Change the Weather History Date:

Tuesday, July 16, 2019

  Actual Average Record
Temperature  
Mean Temperature 58 °F -  
Max Temperature 81 °F 76 °F 89 °F (1998)
Min Temperature 36 °F 63 °F 33 °F (2011)
Degree Days  
Heating Degree Days 6    
Growing Degree Days 8 (Base 50)    
Moisture  
Dew Point 31 °F    
Average Humidity 38    
Maximum Humidity 78    
Minimum Humidity 11    
Precipitation  
Precipitation 0.00 in - - ()
Sea Level Pressure  
Sea Level Pressure 30.17 in    
Wind  
Wind Speed 5 mph (WNW)    
Max Wind Speed 26 mph    
Max Gust Speed 32 mph    
Visibility 10 miles    
Events      
Averages and records for this station are not official NWS values.
T = Trace of Precipitation, MM = Missing Value Source: NWS Daily Summary

Daily Weather History Graph

Daily Weather History Graph

Search for Another Location

Airport or City:

Astronomy

Jul. 16, 2019 Rise Set
Actual Time 5:46 AM PDT 8:16 PM PDT
Civil Twilight 5:16 AM PDT 8:46 PM PDT
Nautical Twilight 4:38 AM PDT 9:23 PM PDT
Astronomical Twilight 3:57 AM PDT 10:05 PM PDT
Moon 8:25 PM PDT (7/16) 5:29 AM PDT (7/16)
Length of Visible Light 15h 30m
Length of Day
14h 29m
Full, 100% of the Moon is Illuminated
Jul 16
Full
Jul 16
Full
Jul 24
Last Quarter
Jul 31
New
Aug 7
First Quarter

Hourly Weather History & Observations

Time (PDT) Temp. Windchill Dew Point Humidity Pressure Visibility Wind Dir Wind Speed Gust Speed Precip Events Conditions
12:15 AM 47.5 °F - 32.0 °F 55% 30.24 in 10.0 mi Calm Calm - N/A   Clear
12:35 AM 49.1 °F - 32.5 °F 53% 30.24 in 10.0 mi Calm Calm - N/A   Clear
12:55 AM 44.8 °F 42.4 °F 31.8 °F 60% 30.23 in 10.0 mi North 4.6 mph - N/A   Clear
1:15 AM 43.9 °F 42.3 °F 31.5 °F 62% 30.23 in 10.0 mi NNE 3.5 mph - N/A   Clear
1:35 AM 47.8 °F - 32.4 °F 55% 30.23 in 10.0 mi Calm Calm - N/A   Clear
1:55 AM 50.4 °F - 33.3 °F 52% 30.23 in 10.0 mi Calm Calm - N/A   Clear
2:15 AM 42.8 °F - 31.3 °F 64% 30.22 in 10.0 mi Calm Calm - N/A   Clear
2:35 AM 40.5 °F - 31.1 °F 69% 30.22 in 10.0 mi Calm Calm - N/A   Clear
2:55 AM 43.3 °F 41.7 °F 31.8 °F 64% 30.22 in 10.0 mi North 3.5 mph - N/A   Clear
3:15 AM 43.9 °F - 32.0 °F 63% 30.22 in 10.0 mi Calm Calm - N/A   Clear
3:35 AM 45.1 °F - 31.3 °F 58% 30.21 in 10.0 mi Calm Calm - N/A   Clear
3:55 AM 41.2 °F - 30.9 °F 67% 30.21 in 10.0 mi Calm Calm - N/A   Clear
4:15 AM 39.2 °F - 30.7 °F 72% 30.20 in 10.0 mi Calm Calm - N/A   Clear
4:35 AM 39.4 °F 36.1 °F 31.5 °F 73% 30.20 in 10.0 mi North 4.6 mph - N/A   Clear
4:55 AM 39.4 °F 36.1 °F 31.6 °F 74% 30.20 in 10.0 mi North 4.6 mph - N/A   Clear
5:15 AM 43.0 °F - 32.0 °F 65% 30.20 in 10.0 mi Calm Calm - N/A   Clear
5:35 AM 38.3 °F - 30.6 °F 74% 30.20 in 10.0 mi Calm Calm - N/A   Clear
5:55 AM 36.5 °F - 30.4 °F 78% 30.20 in 10.0 mi Calm Calm - N/A   Clear
6:15 AM 37.6 °F - 30.7 °F 76% 30.20 in 10.0 mi Calm Calm - N/A   Clear
6:35 AM 42.3 °F - 31.8 °F 67% 30.20 in 10.0 mi Calm Calm - N/A   Clear
6:55 AM 47.7 °F - 34.0 °F 59% 30.20 in 10.0 mi Calm Calm - N/A   Clear
7:15 AM 51.1 °F - 33.1 °F 50% 30.20 in 10.0 mi Calm Calm - N/A   Clear
7:35 AM 55.4 °F - 34.5 °F 45% 30.20 in 10.0 mi Calm Calm - N/A   Clear
7:55 AM 58.1 °F - 36.5 °F 44% 30.20 in 10.0 mi Calm Calm - N/A   Clear
8:15 AM 61.7 °F - 40.1 °F 45% 30.19 in 10.0 mi SE 3.5 mph - N/A   Clear
8:35 AM 64.6 °F - 39.6 °F 40% 30.19 in 10.0 mi SSE 3.5 mph - N/A   Clear
8:55 AM 66.7 °F - 33.1 °F 29% 30.19 in 10.0 mi SE 5.8 mph - N/A   Clear
9:15 AM 68.9 °F - 35.2 °F 29% 30.19 in 10.0 mi ESE 3.5 mph - N/A   Clear
9:35 AM 70.9 °F - 33.1 °F 25% 30.19 in 10.0 mi SE 3.5 mph - N/A   Clear
9:55 AM 72.0 °F - 31.1 °F 22% 30.18 in 10.0 mi Calm Calm - N/A   Clear
10:15 AM 74.1 °F - 30.2 °F 20% 30.18 in 10.0 mi North 3.5 mph - N/A   Clear
10:35 AM 75.7 °F - 25.2 °F 15% 30.18 in 10.0 mi Calm Calm - N/A   Clear
10:55 AM 76.1 °F - 24.8 °F 15% 30.17 in 10.0 mi NNW 6.9 mph - N/A   Clear
11:15 AM 78.6 °F - 25.3 °F 14% 30.17 in 10.0 mi NW 11.5 mph 17.3 mph N/A   Clear
11:35 AM 79.2 °F - 25.2 °F 14% 30.17 in 10.0 mi North 8.1 mph 17.3 mph N/A   Clear
11:55 AM 79.3 °F - 23.0 °F 12% 30.16 in 10.0 mi WNW 9.2 mph 21.9 mph N/A   Clear
12:15 PM 80.8 °F - 23.4 °F 12% 30.16 in 10.0 mi West 15.0 mph 29.9 mph N/A   Clear
12:35 PM 81.3 °F - 24.3 °F 12% 30.16 in 10.0 mi SW 10.4 mph 21.9 mph N/A   Clear
12:55 PM 81.0 °F - 23.9 °F 12% 30.16 in 10.0 mi West 16.1 mph 23.0 mph N/A   Clear
1:15 PM 81.0 °F - 22.6 °F 12% 30.16 in 10.0 mi West 13.8 mph 21.9 mph N/A   Clear
1:35 PM 80.6 °F - 21.2 °F 11% 30.16 in 10.0 mi WSW 15.0 mph 21.9 mph N/A   Clear
1:55 PM 81.5 °F - 21.9 °F 11% 30.16 in 10.0 mi WSW 15.0 mph 29.9 mph N/A   Clear
2:15 PM 81.7 °F - 21.9 °F 11% 30.16 in 10.0 mi WSW 13.8 mph 27.6 mph N/A   Clear
2:35 PM 81.5 °F - 22.1 °F 11% 30.14 in 10.0 mi SW 6.9 mph 19.6 mph N/A   Clear
2:55 PM 81.7 °F - 22.5 °F 11% 30.15 in 10.0 mi West 12.7 mph 24.2 mph N/A   Clear
3:15 PM 81.9 °F - 22.1 °F 11% 30.15 in 10.0 mi WSW 12.7 mph 25.3 mph N/A   Clear
3:35 PM 80.8 °F - 29.1 °F 15% 30.15 in 10.0 mi West 16.1 mph 28.8 mph N/A   Clear
3:55 PM 78.8 °F - 28.8 °F 16% 30.15 in 10.0 mi WNW 26.5 mph 31.1 mph N/A   Clear
4:15 PM 79.3 °F - 31.5 °F 18% 30.14 in 10.0 mi NW 23.0 mph 29.9 mph N/A   Clear
4:35 PM 78.8 °F - 32.7 °F 19% 30.13 in 10.0 mi WNW 21.9 mph 29.9 mph N/A   Clear
4:55 PM 77.0 °F - 33.3 °F 20% 30.13 in 10.0 mi WNW 20.7 mph 32.2 mph N/A   Clear
5:15 PM 77.0 °F - 34.7 °F 22% 30.13 in 10.0 mi NW 23.0 mph 31.1 mph N/A   Clear
5:35 PM 76.3 °F - 34.7 °F 22% 30.12 in 10.0 mi WNW 23.0 mph 28.8 mph N/A   Clear
5:55 PM 75.9 °F - 35.4 °F 23% 30.12 in 10.0 mi West 18.4 mph 29.9 mph N/A   Clear
6:15 PM 75.4 °F - 34.9 °F 23% 30.12 in 10.0 mi West 13.8 mph 26.5 mph N/A   Clear
6:35 PM 74.5 °F - 35.1 °F 24% 30.12 in 10.0 mi West 13.8 mph 25.3 mph N/A   Clear
6:55 PM 74.1 °F - 35.1 °F 24% 30.13 in 10.0 mi WNW 6.9 mph 21.9 mph N/A   Clear
7:15 PM 72.5 °F - 33.4 °F 24% 30.13 in 10.0 mi West 18.4 mph 21.9 mph N/A   Clear
7:35 PM 70.7 °F - 33.6 °F 26% 30.13 in 10.0 mi WNW 11.5 mph 21.9 mph N/A   Clear
7:55 PM 70.0 °F - 33.4 °F 26% 30.14 in 10.0 mi WNW 9.2 mph 16.1 mph N/A   Clear
8:15 PM 67.5 °F - 34.0 °F 29% 30.14 in 10.0 mi West 9.2 mph - N/A   Clear
8:35 PM 67.5 °F - 34.7 °F 30% 30.14 in 10.0 mi WNW 10.4 mph 16.1 mph N/A   Clear
8:55 PM 62.2 °F - 36.3 °F 38% 30.14 in 10.0 mi North 3.5 mph - N/A   Clear
9:15 PM 62.1 °F - 36.5 °F 39% 30.15 in 10.0 mi Calm Calm - N/A   Clear
9:35 PM 60.8 °F - 35.8 °F 39% 30.16 in 10.0 mi Calm Calm - N/A   Clear
9:55 PM 57.7 °F - 34.9 °F 42% 30.16 in 10.0 mi NW 3.5 mph - N/A   Clear
10:15 PM 57.4 °F - 35.6 °F 44% 30.16 in 10.0 mi SE 5.8 mph - N/A   Clear
10:35 PM 59.7 °F - 37.0 °F 43% 30.16 in 10.0 mi Calm Calm - N/A   Clear
10:55 PM 55.4 °F - 35.8 °F 48% 30.16 in 10.0 mi Calm Calm - N/A   Clear
11:15 PM 53.8 °F - 35.2 °F 50% 30.16 in 10.0 mi Calm Calm - N/A   Clear
11:35 PM 52.2 °F - 34.7 °F 51% 30.17 in 10.0 mi Calm Calm - N/A   Clear
11:55 PM 51.1 °F - 34.3 °F 53% 30.17 in 10.0 mi Calm Calm - N/A   Clear